Regional Weather Roundup
Issued by NWS

Home | Current Version | Previous Version | Text Only | Print | Product List | Glossary On
Versions: 1 2 3 4 5 6 7 8 9 10 11 12 13 14 15 16 17 18 19 20 21 22 23 24 25 26 27 28 29 30 31 32 33 34 35 36 37 38 39 40 41 42 43 44 45 46 47 48 49 50
000
ASUS43 KMPX 250510
RWRMN
WEATHER ROUNDUP FOR MINNESOTA
NATIONAL WEATHER SERVICE TWIN CITIES/CHANHASSEN MN
1200 AM CDT WED APR 25 2018


NOTE: "FAIR" INDICATES FEW OR NO CLOUDS BELOW 12,000 FEET WITH NO
SIGNIFICANT WEATHER AND/OR OBSTRUCTIONS TO VISIBILITY. N/A MEANS
CURRENT SKY AND/OR WEATHER CONDITIONS ARE NOT AVAILABLE.

MNZ060>063-068>070-250600-
   Twin Cities Metro

CITY           SKY/WX    TMP DP  RH WIND       PRES   REMARKS
TWIN CITIES    FAIR      48  27  44 N16       30.23R
ST PAUL        FAIR      46  26  45 N9        30.24R
CRYSTAL        FAIR      45  25  45 N9        30.23R
BLAINE         FAIR      45  27  49 N8        30.24R
LAKEVILLE      FAIR      37  28  70 NW6       30.23R
EDEN PRAIRIE   FAIR      47  26  44 N10       30.22S
SOUTH ST PAUL  FAIR      47  26  42 N7        30.23R
LAKE ELMO      FAIR      45  30  57 N6        30.24R
$$
MNZ001>005-007-008-013>017-022>024-027-028-250600-
   Northwest Minnesota

CITY           SKY/WX    TMP DP  RH WIND       PRES   REMARKS
BEMIDJI        FAIR      30  20  67 CALM      30.31S
HALLOCK        FAIR      34  23  64 S8        30.29F WCI  27
ROSEAU         FAIR      34  27  75 S6        30.29F WCI  29
WARROAD        FAIR      36  27  69 S3        30.30F
THIEF RVR FALL FAIR      34  27  75 CALM      30.32F
CROOKSTON      FAIR      36  28  75 CALM      30.33F
FOSSTON        FAIR      27  19  74 CALM      30.33S
DETROIT LAKES  FAIR      36  30  80 CALM      30.32F
MOORHEAD       FAIR      36  27  69 CALM      30.34S
PARK RAPIDS    FAIR      33  22  63 N6        30.30F WCI  28
MAHNOMEN       FAIR      35  26  70 CALM      30.32S
$$
MNZ006-009>011-018-025>026-250600-
   North Central Minnesota

CITY           SKY/WX    TMP DP  RH WIND       PRES   REMARKS
BAUDETTE       FAIR      29  24  82 CALM      30.29F
FLAG ISLAND    FAIR      32  21  64 S3        30.28F
INTL FALLS     FAIR      25  23  92 CALM      30.30S
WASKISH        FAIR      27  21  80 CALM      30.31S
BIG FORK       FAIR      27  21  80 CALM      30.30S
LONGVILLE      FAIR      34  23  64 CALM      30.29F
GRAND RAPIDS   FAIR      31  22  69 N3        30.31F
CRANE LAKE     FAIR      23  21  93 CALM      30.32S
ORR            FAIR      27  19  74 CALM      30.27F
COOK           FAIR      27  21  80 CALM      30.29S
WALKER         FAIR      34  21  59 N5        30.31F WCI  30
$$
MNZ012-019>021-037-250600-
   Northeast Minnesota

CITY           SKY/WX    TMP DP  RH WIND       PRES   REMARKS
DULUTH         FAIR      34  22  61 NW3       30.27R
ELY            FAIR      28  21  74 CALM      30.28S
HIBBING        FAIR      28  21  75 NW3       30.28S
EVELETH        FAIR      33  21  61 N5        30.28F WCI  29
DULUTH HARBOR  FAIR      37  28  70 N9        30.30S
TWO HARBORS    FAIR      34  23  64 CALM      30.26R
SILVER BAY     FAIR      30  23  74 CALM      30.25S
GRAND MARAIS     N/A     32  23  69 CALM      30.28R
G MARAIS ARPRT FAIR      30  19  64 N5        30.23R WCI  25
$$
MNZ029>031-032-039>041-046>048-054>057-064-250600-
   West Central Minnesota

CITY           SKY/WX    TMP DP  RH WIND       PRES   REMARKS
FERGUS FALLS   FAIR      37  28  70 CALM      30.31S
WHEATON        CLEAR     37  30  75 N5        30.35S
MORRIS         CLEAR     36  30  80 N8        30.30S
ALEXANDRIA     FAIR      39  27  62 N8        30.30S
ELBOW LAKE     FAIR      34  28  79 N6        30.31F WCI  29
WADENA         FAIR      34  23  64 CALM      30.32R
GLENWOOD       FAIR      37  28  70 N10       30.29R
APPLETON       CLEAR     39  30  70 N7        30.30S
BENSON         CLEAR     32  28  86 N9        30.31S WCI  24
ORTONVILLE     CLEAR     39  30  70 NW9       30.32S
WILLMAR        FAIR      36  30  80 NW8       30.30S
$$
MNZ033>034-036-042>043-049>051-058-059-250600-
   Central Minnesota

CITY           SKY/WX    TMP DP  RH WIND       PRES   REMARKS
ST CLOUD       FAIR      41  28  60 N12       30.27R
SAUK CENTRE    FAIR      40  25  54 N13       30.29R
PAYNESVILLE    FAIR      39  31  72 N3        30.28S
AITKIN         FAIR      32  23  69 N3        30.28S
PINE RIVER     FAIR      34  21  60 N3        30.33S
BRAINERD       FAIR      35  23  61 N7        30.30R WCI  29
STAPLES        FAIR      36  21  55 N3        30.31S
LONG PRAIRIE   FAIR      37  25  60 NW9       30.30R
LITTLE FALLS   FAIR      39  18  41 N5        30.29S
LITCHFIELD     FAIR      39  34  81 NW6       30.27S
BUFFALO        FAIR      43  27  53 N7        30.26S
MAPLE LAKE     FAIR      42  31  65 N8        30.27R
HUTCHINSON     FAIR      39  33  81 NW8       30.27S
$$
MNZ037-044-045-052-053-250600-
   East Central Minnesota

CITY           SKY/WX    TMP DP  RH WIND       PRES   REMARKS
PRINCETON      FAIR      43  27  52 N12       30.27R
MORA           FAIR      39  25  56 N6        30.28S
CAMBRIDGE      FAIR      45  28  53 N5        30.26S
RUSH CITY      FAIR      38  27  64 N8        30.26R
MOOSE LAKE     FAIR      34  23  64 N5        30.28R WCI  30
HINCKLEY       FAIR      39  27  60 N9        30.27R
CLOQUET        FAIR      36  19  51 CALM      30.28R
MCGREGOR       FAIR      36  25  64 N3        30.29S
$$
MNZ071>073-080-081-089-090-097-098-250600-
   Southwest Minnesota

CITY           SKY/WX    TMP DP  RH WIND       PRES   REMARKS
MONTEVIDEO     CLEAR     39  32  75 N8        30.30S
GRANITE FALLS  CLEAR     41  34  76 NW9       30.31S
CANBY          CLEAR     37  32  82 NW7       30.32S
MARSHALL       CLEAR     39  33  79 NW10      30.30S
REDWOOD FALLS  CLEAR     41  33  73 NW8       30.26S
OLIVIA         CLEAR     37  34  87 N9        30.26S
PIPESTONE      CLEAR    N/A N/A N/A N9        30.28S
WINDOM         CLEAR     39  25  56 NW14      30.25S
WORTHINGTON    CLOUDY    38  33  82 N13       30.27R
JACKSON        CLEAR     39  34  81 N10       30.25S
TRACY          CLEAR     39  35  83 NW9       30.28S
SLAYTON        CLEAR     39  32  76 N18       30.27F
$$
MNZ065>067-074>077-082>085-091>093-250600-
   South Central Minnesota

CITY           SKY/WX    TMP DP  RH WIND       PRES   REMARKS
MANKATO        FAIR      43  34  70 NW6       30.24S
NEW ULM        CLEAR     43  32  65 NW10G16   30.25R
ST JAMES       CLEAR     39  34  81 NW9       30.25S
FAIRMONT       CLOUDY    44  37  76 N13       30.23F
GLENCOE        FAIR      43  32  66 NW6       30.25R
OWATONNA       FAIR      41  34  75 CALM      30.22S
WASECA         FAIR      36  34  93 NW8       30.23S
ALBERT LEA     FAIR      45  34  65 N7        30.21S
$$
MNZ078>079-086>088-094>096-250600-
   Southeast Minnesota

CITY           SKY/WX    TMP DP  RH WIND       PRES   REMARKS
ROCHESTER      FAIR      42  36  79 NW7       30.20S
RED WING       FAIR      37  30  75 NW3       30.20S
STANTON        FAIR      44  32  61 N6        30.21R
DODGE CENTER   FAIR      43  36  75 N3        30.21S
WINONA         FAIR      48  36  61 CALM      30.18S
AUSTIN         FAIR      43  37  81 N3        30.20S
PRESTON        FAIR      44  34  69 N6        30.19S
$$
ABBREVIATIONS USED IN REMARKS
   TC - TEMPERATURES IN CELSIUS
  WCI - WIND CHILL INDEX
   HX - HEAT INDEX
  VSB - VISIBILITY
$$




USA.gov is the U.S. government's official web portal to all federal, state and local government web resources and services.